[[[{"header":{"parameterUnit":"kt","parameterCategory":2,"dx":1,"dy":1,"la1":30.253999710083008,"la2":30.299108505249023,"lo1":-89.0895004272461,"lo2":-89.04439544677734,"nx":28,"ny":28,"refTime":"2022-10-27T21:00:00:Z","depth":0,"parameterNumber":1,"parameterNumberName":"U-component_of_WINDS"},"data":[-0.1888,-0.186,-0.1829,-0.1782,-0.1747,-0.171,-0.1687,-0.1653,-0.1619,-0.1571,-0.1538,-0.1503,-0.1456,-0.1408,-0.1371,-0.1356,-0.1343,-0.1357,-0.1337,-0.1304,-0.1297,-0.1291,-0.1296,-0.1354,-0.1354,-0.1376,-0.1377,-0.1377,-0.187,-0.1835,-0.1801,-0.1747,-0.1717,-0.1686,-0.164,-0.1618,-0.1585,-0.1542,-0.1507,-0.1462,-0.1421,-0.1368,-0.1324,-0.131,-0.1293,-0.1301,-0.1302,-0.1295,-0.1258,-0.1264,-0.1316,-0.1316,-0.1316,-0.1316,-0.1316,-0.1316,-0.183,-0.1814,-0.1763,-0.1725,-0.1689,-0.1653,-0.1632,-0.1589,-0.1555,-0.1505,-0.1473,-0.1435,-0.1385,-0.1315,-0.1283,-0.1253,-0.1238,-0.1236,-0.1236,-0.1237,-0.1244,-0.122,-0.1243,-0.1243,-0.1243,-0.1243,-0.1242,0,-0.1792,-0.1767,-0.1731,-0.1686,-0.1657,-0.1618,-0.1578,-0.1564,-0.1498,-0.1472,-0.1432,-0.1403,-0.1347,-0.1305,-0.1256,-0.1222,-0.1186,-0.1178,-0.1177,-0.1194,-0.1216,-0.1206,-0.1149,-0.1177,-0.1177,-0.1176,-0.1176,-0.1176,-0.175,-0.1734,-0.1664,-0.1643,-0.1613,-0.158,-0.1554,-0.1496,-0.1471,-0.1412,-0.14,-0.1357,-0.132,-0.126,-0.1208,-0.1165,-0.1148,-0.1162,-0.1141,-0.1158,-0.115,-0.1152,-0.1151,-0.1168,-0.1169,-0.117,-0.1171,0,-0.1731,-0.1678,-0.1642,-0.1573,-0.1555,-0.1542,-0.1482,-0.1463,-0.1422,-0.139,-0.1379,-0.1315,-0.1276,-0.1221,-0.1165,-0.1137,-0.1115,-0.1098,-0.1133,-0.1127,-0.1137,-0.1137,-0.1171,-0.1174,-0.1111,-0.1112,-0.1113,0,-0.1676,-0.1656,-0.1578,-0.156,-0.1537,-0.1479,-0.1458,-0.142,-0.1375,-0.1348,-0.1298,-0.1275,-0.1207,-0.1176,-0.1136,-0.1107,-0.1096,-0.1074,-0.1063,-0.1079,-0.1082,-0.1065,-0.1063,-0.1038,-0.1038,-0.1038,-0.1038,0,-0.1651,-0.1585,-0.1555,-0.1532,-0.1455,-0.1443,-0.141,-0.1358,-0.1332,-0.1289,-0.1272,-0.1226,-0.1201,-0.1166,-0.1115,-0.1103,-0.1078,-0.105,-0.1055,-0.1057,-0.1053,-0.1054,-0.1098,-0.1037,-0.1037,-0.1037,-0.1037,0,-0.1599,-0.1557,-0.152,-0.1456,-0.1441,-0.142,-0.1371,-0.1341,-0.1289,-0.1262,-0.1228,-0.1187,-0.1156,-0.1133,-0.109,-0.1089,-0.1068,-0.1043,-0.1042,-0.1037,-0.1013,-0.1047,-0.1092,-0.1095,-0.1032,-0.1032,-0.1031,0,-0.1587,-0.1535,-0.1485,-0.1451,-0.1419,-0.1365,-0.1341,-0.1297,-0.1258,-0.1226,-0.1183,-0.1146,-0.1117,-0.1098,-0.1083,-0.1038,-0.1039,-0.1036,-0.0991,-0.099,-0.1009,-0.1049,-0.1071,-0.1088,-0.103,-0.103,-0.103,0,-0.1571,-0.1477,-0.1474,-0.1445,-0.1376,-0.1348,-0.132,-0.1271,-0.1252,-0.1206,-0.1182,-0.1127,-0.1103,-0.1071,-0.1033,-0.1021,-0.1036,-0.0996,-0.0994,-0.1007,-0.1024,-0.1045,-0.1048,-0.1013,-0.1013,-0.1013,-0.1029,0,-0.1506,-0.1472,-0.1462,-0.1398,-0.1368,-0.1342,-0.1283,-0.1259,-0.1225,-0.1185,-0.1147,-0.1094,-0.1042,-0.1029,-0.0995,-0.0985,-0.0978,-0.0952,-0.0926,-0.0953,-0.0957,-0.0958,-0.0926,-0.0925,-0.0924,-0.0923,0,0,-0.1509,-0.1459,-0.1403,-0.1373,-0.1345,-0.1288,-0.1266,-0.1231,-0.1161,-0.1143,-0.1127,-0.1043,-0.0999,-0.0959,-0.0963,-0.0941,-0.0934,-0.0926,-0.094,-0.0942,-0.0944,-0.0949,-0.0952,-0.0921,-0.0921,-0.092,-0.092,0,-0.1473,-0.1431,-0.141,-0.1371,-0.1312,-0.127,-0.1265,-0.1195,-0.1168,-0.1129,-0.1082,-0.1052,-0.0984,-0.0945,-0.0917,-0.093,-0.0896,-0.0918,-0.0946,-0.0933,-0.0936,-0.0939,-0.0945,-0.0948,-0.0918,-0.0918,-0.0918,0,-0.1448,-0.1397,-0.138,-0.1311,-0.1271,-0.1238,-0.1197,-0.1164,-0.1139,-0.1076,-0.1039,-0.1001,-0.0943,-0.0912,-0.0895,-0.0881,-0.0865,-0.0858,-0.0862,-0.0859,-0.0843,-0.0847,-0.0851,-0.0802,-0.0802,-0.0801,0,0,-0.1425,-0.1393,-0.1319,-0.1298,-0.1277,-0.1213,-0.1189,-0.1152,-0.1102,-0.1082,-0.1032,-0.0984,-0.0944,-0.0919,-0.0878,-0.0852,-0.0836,-0.0846,-0.0851,-0.0856,-0.0856,-0.0841,-0.0845,-0.0801,-0.0801,-0.0801,0,0,-0.1414,-0.1328,-0.1303,-0.1271,-0.1225,-0.1151,-0.114,-0.1107,-0.1064,-0.106,-0.0996,-0.098,-0.095,-0.0913,-0.0913,-0.0868,-0.0843,-0.0842,-0.0893,-0.0899,-0.0904,-0.0914,-0.0862,0,0,0,0,0,-0.1347,-0.1339,-0.1317,-0.1303,-0.1213,-0.1163,-0.1151,-0.1098,-0.1083,-0.1076,-0.1029,-0.0993,-0.09,-0.0899,-0.0885,-0.0886,-0.0794,-0.0795,-0.0796,-0.0855,-0.0862,-0.0868,0,0,0,0,0,0,-0.1341,-0.1323,-0.1317,-0.1243,-0.1222,-0.1163,-0.1125,-0.111,-0.1082,-0.1076,-0.1004,-0.0991,-0.0944,-0.0902,-0.0891,-0.0893,-0.0866,-0.0794,-0.0795,-0.0796,-0.0858,-0.0864,-0.0868,0,0,0,0,0,-0.1335,-0.1321,-0.1192,-0.1243,-0.1225,-0.1153,-0.1125,-0.1112,-0.1089,-0.1016,-0.1002,-0.1052,-0.0946,-0.0932,-0.0895,-0.0899,-0.0873,-0.0869,-0.0795,-0.0796,-0.0797,-0.0861,0,0,0,0,0,0,-0.1332,-0.1309,-0.1187,-0.1179,-0.1241,-0.1155,-0.114,-0.1114,-0.103,-0.1016,-0.1061,-0.1058,-0.0947,-0.0936,-0.0926,-0.0905,-0.088,-0.0875,-0.0873,-0.0796,-0.0796,-0.0797,0,0,0,0,0,0,-0.1316,-0.1303,-0.1183,-0.1184,-0.1176,-0.1157,-0.1144,-0.1103,-0.103,-0.108,-0.1074,-0.1061,-0.0961,-0.0939,-0.0931,-0.087,-0.0884,-0.088,-0.0878,-0.0876,-0.0796,-0.0797,0,0,0,0,0,0,-0.131,-0.1299,-0.1186,-0.118,-0.1173,-0.1085,-0.112,-0.1031,-0.1032,-0.1084,-0.103,-0.103,-0.0965,-0.0956,-0.0934,-0.0877,-0.0872,-0.0884,-0.0881,-0.0879,-0.0878,0,0,0,0,0,0,0,-0.1305,-0.1393,-0.1231,-0.1176,-0.117,-0.1111,-0.1108,-0.1106,-0.1032,-0.1031,-0.1031,-0.103,-0.0907,-0.0902,-0.0898,-0.0883,0,0,-0.0884,-0.0883,0,0,0,0,0,0,0,0,-0.1396,-0.1393,-0.1231,-0.123,-0.1228,-0.111,-0.1109,-0.1107,-0.1032,-0.1031,-0.1031,-0.103,-0.0906,-0.0902,-0.0899,0,0,0,0,0,0,0,0,0,0,0,0,0,0,0,-0.1231,-0.123,0,-0.111,-0.1109,-0.1107,-0.1032,-0.1031,-0.1031,-0.103,-0.0905,-0.0902,-0.0899,0,0,0,0,0,0,0,0,0,0,0,0,0,0,0,0,0,0,0,0,0,0,0,0,0,0,0,0,0,0,0,0,0,0,0,0,0,0,0,0,0,0,0,0,0,0,0,0,0,0,0,0,0,0,0,0,0,0,0,0,0,0,0,0,0,0,0,0,0]}],[{"header":{"parameterUnit":"kt","parameterCategory":2,"dx":1,"dy":1,"la1":30.253999710083008,"la2":30.299108505249023,"lo1":-89.0895004272461,"lo2":-89.04439544677734,"nx":28,"ny":28,"refTime":"2022-10-27T21:00:00:Z","depth":0,"parameterNumber":2,"parameterNumberName":"V-component_of_WINDS"},"data":[1.2635,1.2603,1.2597,1.2557,1.2546,1.2516,1.2504,1.2487,1.2473,1.2436,1.2413,1.2405,1.2387,1.2358,1.2332,1.2329,1.2316,1.2307,1.2304,1.2353,1.2359,1.2365,1.2371,1.2306,1.2305,1.2253,1.2252,1.2252,1.2664,1.2653,1.2631,1.2607,1.2587,1.2592,1.2573,1.2556,1.253,1.2512,1.2491,1.2458,1.2432,1.2418,1.2391,1.2373,1.2373,1.2366,1.2365,1.2362,1.2414,1.2422,1.2365,1.2365,1.2365,1.2365,1.2365,1.2365,1.2715,1.2697,1.268,1.2656,1.2643,1.2627,1.2607,1.2598,1.2577,1.255,1.255,1.252,1.2501,1.2468,1.2456,1.2431,1.2438,1.2428,1.2425,1.2422,1.2417,1.2486,1.2427,1.2427,1.2427,1.2427,1.2427,0,1.275,1.2748,1.2728,1.2706,1.2689,1.2672,1.2656,1.2644,1.2639,1.2621,1.2595,1.2579,1.2547,1.2521,1.2496,1.2486,1.2489,1.2491,1.2483,1.248,1.248,1.2475,1.2557,1.2492,1.2493,1.2493,1.2493,1.2493,1.2798,1.2779,1.2761,1.2748,1.2739,1.2718,1.2704,1.2701,1.2686,1.2665,1.2649,1.2624,1.2604,1.2563,1.2552,1.2529,1.2529,1.2504,1.2526,1.2524,1.2524,1.2524,1.252,1.2499,1.2498,1.2498,1.2497,0,1.2825,1.282,1.2789,1.2774,1.277,1.2749,1.2736,1.2718,1.2712,1.2686,1.268,1.267,1.2645,1.2639,1.261,1.2608,1.2568,1.2571,1.2572,1.2571,1.2545,1.2546,1.247,1.2457,1.253,1.2529,1.2529,0,1.2863,1.2839,1.2832,1.2815,1.2787,1.2785,1.2757,1.275,1.2737,1.2716,1.2721,1.2701,1.2698,1.2677,1.2674,1.2641,1.2637,1.2632,1.263,1.2629,1.2629,1.2619,1.2621,1.2634,1.2634,1.2635,1.2635,0,1.2903,1.2874,1.2846,1.2838,1.2821,1.2808,1.28,1.2786,1.2773,1.2756,1.2747,1.2728,1.2716,1.27,1.2695,1.271,1.2657,1.2676,1.2651,1.2651,1.2638,1.2639,1.2574,1.2636,1.2636,1.2636,1.2636,0,1.2933,1.2917,1.288,1.2865,1.2857,1.284,1.282,1.2805,1.279,1.2787,1.2774,1.2776,1.2751,1.2769,1.2733,1.2752,1.274,1.2734,1.2732,1.2727,1.2747,1.2707,1.2649,1.2641,1.2724,1.2725,1.2725,0,1.2978,1.294,1.294,1.2905,1.2886,1.2892,1.2873,1.2861,1.2856,1.2838,1.2833,1.2813,1.2827,1.282,1.2803,1.2796,1.277,1.2799,1.2769,1.2768,1.2769,1.2717,1.2708,1.2663,1.2735,1.2734,1.2733,0,1.3013,1.2995,1.2989,1.298,1.2966,1.2952,1.293,1.2912,1.29,1.2888,1.2868,1.2843,1.285,1.284,1.2841,1.2824,1.2787,1.2835,1.2834,1.2823,1.2741,1.2732,1.2725,1.2791,1.279,1.2789,1.2741,0,1.3052,1.3035,1.302,1.3003,1.2992,1.2972,1.2969,1.2957,1.2959,1.2954,1.2927,1.2919,1.29,1.2893,1.2895,1.2859,1.2863,1.2873,1.2889,1.2856,1.284,1.2833,1.2913,1.2913,1.2914,1.2914,0,0,1.3095,1.3071,1.3073,1.3054,1.3044,1.3052,1.303,1.3022,1.3006,1.2998,1.3008,1.2971,1.2965,1.2931,1.2921,1.2915,1.2907,1.292,1.2873,1.2868,1.2864,1.2846,1.284,1.2915,1.2915,1.2915,1.2915,0,1.3109,1.3104,1.3084,1.3076,1.3064,1.3062,1.3057,1.3047,1.3044,1.3019,1.3025,1.3009,1.2983,1.2973,1.2964,1.2924,1.2929,1.292,1.2897,1.2877,1.2872,1.2867,1.2849,1.2843,1.2916,1.2916,1.2916,0,1.3141,1.3134,1.3125,1.3107,1.31,1.3083,1.3099,1.3082,1.3068,1.3079,1.3054,1.3049,1.3037,1.3009,1.2996,1.3004,1.2949,1.2968,1.2965,1.2963,1.2943,1.2937,1.2931,1.3003,1.3003,1.3003,0,0,1.3153,1.3138,1.3131,1.311,1.3105,1.3102,1.3094,1.3095,1.3085,1.3081,1.3075,1.3065,1.3049,1.3038,1.3024,1.2993,1.2989,1.2979,1.2975,1.2971,1.2967,1.2946,1.294,1.3004,1.3005,1.3005,0,0,1.3159,1.315,1.3154,1.313,1.312,1.3112,1.3098,1.3103,1.309,1.3092,1.3094,1.3091,1.3065,1.306,1.3076,1.3029,1.3045,1.3042,1.3033,1.3027,1.3023,1.3024,1.3091,0,0,0,0,0,1.3172,1.3151,1.3155,1.3151,1.3129,1.311,1.3107,1.3108,1.3118,1.3107,1.3103,1.311,1.3068,1.3082,1.3077,1.306,1.3019,1.3017,1.3014,1.2995,1.299,1.2986,0,0,0,0,0,0,1.317,1.3165,1.3155,1.3146,1.3142,1.311,1.3128,1.3128,1.312,1.3121,1.3111,1.311,1.311,1.3085,1.308,1.3063,1.3093,1.3018,1.3016,1.3014,1.2994,1.2989,1.2985,0,0,0,0,0,1.3169,1.3165,1.3131,1.3147,1.3143,1.3139,1.3129,1.3129,1.3123,1.3117,1.3116,1.3124,1.311,1.3107,1.3082,1.3065,1.3096,1.3094,1.3017,1.3015,1.3014,1.2991,0,0,0,0,0,0,1.3168,1.3164,1.313,1.3129,1.3155,1.3141,1.3138,1.313,1.3119,1.3118,1.313,1.3132,1.3109,1.3107,1.3104,1.3066,1.3098,1.3096,1.3095,1.3016,1.3014,1.3013,0,0,0,0,0,0,1.3167,1.3163,1.3129,1.314,1.314,1.3142,1.314,1.3121,1.3118,1.3133,1.3134,1.3131,1.3113,1.3107,1.3105,1.3074,1.31,1.3098,1.3097,1.3097,1.3014,1.3013,0,0,0,0,0,0,1.3165,1.3162,1.3141,1.3141,1.3141,1.3126,1.3125,1.3103,1.3128,1.3133,1.3131,1.3132,1.3113,1.3111,1.3105,1.3075,1.3074,1.31,1.3099,1.3098,1.3098,0,0,0,0,0,0,0,1.3164,1.3183,1.3138,1.3141,1.3141,1.3117,1.3116,1.3116,1.3128,1.3129,1.313,1.3131,1.3109,1.3107,1.3105,1.3077,0,0,1.31,1.3099,0,0,0,0,0,0,0,0,1.3185,1.3184,1.3138,1.3137,1.3137,1.3117,1.3116,1.3116,1.3129,1.3129,1.313,1.3131,1.3108,1.3107,1.3106,0,0,0,0,0,0,0,0,0,0,0,0,0,0,0,1.3138,1.3137,0,1.3117,1.3116,1.3116,1.3129,1.3129,1.313,1.3131,1.3108,1.3107,1.3106,0,0,0,0,0,0,0,0,0,0,0,0,0,0,0,0,0,0,0,0,0,0,0,0,0,0,0,0,0,0,0,0,0,0,0,0,0,0,0,0,0,0,0,0,0,0,0,0,0,0,0,0,0,0,0,0,0,0,0,0,0,0,0,0,0,0,0,0,0]}]]]